Time,TemperatureF,DewpointF,PressureIn,WindDirection,WindDirectionDegrees,WindSpeedMPH,WindSpeedGustMPH,Humidity,HourlyPrecipIn,Conditions,Clouds,dailyrainin,SoftwareType,DateUTC
2013-05-07 00:02:00,63.1,56.0,29.94,West,279,0.0,-999.0,77,-99.99,,,0.00,weatherlink.com 1.10,2013-05-07 04:02:00,
2013-05-07 00:17:00,62.4,55.0,29.94,WNW,293,2.0,-999.0,77,-99.99,,,0.00,weatherlink.com 1.10,2013-05-07 04:17:00,
2013-05-07 00:32:00,62.0,55.0,29.94,WNW,293,0.0,-999.0,78,-99.99,,,0.00,weatherlink.com 1.10,2013-05-07 04:32:00,
2013-05-07 00:47:00,61.4,56.0,29.94,WNW,292,0.0,-999.0,82,-99.99,,,0.00,weatherlink.com 1.10,2013-05-07 04:47:00,
2013-05-07 01:02:00,60.9,55.0,29.94,WNW,292,0.0,-999.0,82,-99.99,,,0.00,weatherlink.com 1.10,2013-05-07 05:02:00,
2013-05-07 01:17:00,60.0,55.0,29.94,WNW,293,0.0,-999.0,83,-99.99,,,0.00,weatherlink.com 1.10,2013-05-07 05:17:00,
2013-05-07 01:32:00,59.4,55.0,29.94,WNW,292,0.0,-999.0,85,-99.99,,,0.00,weatherlink.com 1.10,2013-05-07 05:32:00,
2013-05-07 01:47:00,59.0,55.0,29.94,WNW,293,0.0,-999.0,86,-99.99,,,0.00,weatherlink.com 1.10,2013-05-07 05:47:00,
2013-05-07 02:02:00,58.4,55.0,29.94,WNW,293,0.0,-999.0,87,-99.99,,,0.00,weatherlink.com 1.10,2013-05-07 06:02:00,
2013-05-07 02:17:00,57.2,54.0,29.93,WNW,292,0.0,-999.0,90,-99.99,,,0.00,weatherlink.com 1.10,2013-05-07 06:17:00,
2013-05-07 02:32:00,57.2,54.0,29.93,WNW,293,0.0,-999.0,90,-99.99,,,0.00,weatherlink.com 1.10,2013-05-07 06:32:00,
2013-05-07 02:47:00,56.9,54.0,29.93,WNW,293,0.0,-999.0,91,-99.99,,,0.00,weatherlink.com 1.10,2013-05-07 06:47:00,
2013-05-07 03:02:00,56.0,54.0,29.93,WNW,293,0.0,-999.0,91,-99.99,,,0.00,weatherlink.com 1.10,2013-05-07 07:02:00,
2013-05-07 03:17:00,55.8,54.0,29.93,WNW,293,0.0,-999.0,92,-99.99,,,0.00,weatherlink.com 1.10,2013-05-07 07:17:00,
2013-05-07 03:32:00,55.8,54.0,29.93,WNW,293,0.0,-999.0,93,-99.99,,,0.00,weatherlink.com 1.10,2013-05-07 07:32:00,
2013-05-07 03:47:00,56.1,54.0,29.93,WNW,293,0.0,-999.0,93,-99.99,,,0.00,weatherlink.com 1.10,2013-05-07 07:47:00,
2013-05-07 04:02:00,56.1,54.0,29.93,WNW,293,0.0,-999.0,93,-99.99,,,0.00,weatherlink.com 1.10,2013-05-07 08:02:00,
2013-05-07 04:17:00,55.4,53.0,29.93,WNW,293,0.0,-999.0,92,-99.99,,,0.00,weatherlink.com 1.10,2013-05-07 08:17:00,
2013-05-07 04:32:00,54.2,53.0,29.93,WNW,293,0.0,-999.0,94,-99.99,,,0.00,weatherlink.com 1.10,2013-05-07 08:32:00,
2013-05-07 04:48:00,54.0,52.0,29.93,WNW,293,0.0,-999.0,94,-99.99,,,0.00,weatherlink.com 1.10,2013-05-07 08:48:00,
2013-05-07 05:02:00,53.9,53.0,29.93,WNW,293,0.0,-999.0,95,-99.99,,,0.00,weatherlink.com 1.10,2013-05-07 09:02:00,
2013-05-07 05:17:00,53.1,52.0,29.93,WNW,292,0.0,-999.0,95,-99.99,,,0.00,weatherlink.com 1.10,2013-05-07 09:17:00,
2013-05-07 05:33:00,53.2,52.0,29.93,WNW,292,0.0,-999.0,95,-99.99,,,0.00,weatherlink.com 1.10,2013-05-07 09:33:00,
2013-05-07 05:48:00,53.1,52.0,29.94,WNW,293,0.0,-999.0,95,-99.99,,,0.00,weatherlink.com 1.10,2013-05-07 09:48:00,
2013-05-07 06:03:00,53.0,52.0,29.94,WNW,293,0.0,-999.0,96,-99.99,,,0.00,weatherlink.com 1.10,2013-05-07 10:03:00,
2013-05-07 06:18:00,53.0,52.0,29.94,WNW,293,0.0,-999.0,96,-99.99,,,0.00,weatherlink.com 1.10,2013-05-07 10:18:00,
2013-05-07 06:33:00,52.9,52.0,29.95,WNW,292,0.0,-999.0,96,-99.99,,,0.00,weatherlink.com 1.10,2013-05-07 10:33:00,
2013-05-07 06:48:00,52.8,52.0,29.96,WNW,293,0.0,-999.0,96,-99.99,,,0.00,weatherlink.com 1.10,2013-05-07 10:48:00,
2013-05-07 07:03:00,53.0,52.0,29.96,WNW,293,0.0,-999.0,96,-99.99,,,0.00,weatherlink.com 1.10,2013-05-07 11:03:00,
2013-05-07 07:18:00,53.2,52.0,29.97,WNW,292,0.0,-999.0,96,-99.99,,,0.00,weatherlink.com 1.10,2013-05-07 11:18:00,
2013-05-07 07:33:00,54.5,54.0,29.97,WNW,292,0.0,-999.0,97,-99.99,,,0.00,weatherlink.com 1.10,2013-05-07 11:33:00,
2013-05-07 07:48:00,56.5,56.0,29.98,WNW,293,0.0,-999.0,98,-99.99,,,0.00,weatherlink.com 1.10,2013-05-07 11:48:00,
2013-05-07 08:03:00,58.5,58.0,29.99,WNW,292,0.0,-999.0,98,-99.99,,,0.00,weatherlink.com 1.10,2013-05-07 12:03:00,
2013-05-07 08:18:00,60.1,59.0,29.99,WNW,292,0.0,-999.0,97,-99.99,,,0.00,weatherlink.com 1.10,2013-05-07 12:18:00,
2013-05-07 08:33:00,62.0,61.0,29.99,WNW,292,0.0,-999.0,96,-99.99,,,0.00,weatherlink.com 1.10,2013-05-07 12:33:00,
2013-05-07 08:48:00,64.4,60.0,29.99,WNW,286,0.0,-999.0,85,-99.99,,,0.00,weatherlink.com 1.10,2013-05-07 12:48:00,
2013-05-07 09:03:00,66.5,60.0,29.99,WNW,291,2.0,-999.0,79,-99.99,,,0.00,weatherlink.com 1.10,2013-05-07 13:03:00,
2013-05-07 09:18:00,68.8,61.0,29.99,WNW,287,0.0,-999.0,75,-99.99,,,0.00,weatherlink.com 1.10,2013-05-07 13:18:00,
2013-05-07 09:33:00,69.1,60.0,29.99,WNW,288,2.0,-999.0,72,-99.99,,,0.00,weatherlink.com 1.10,2013-05-07 13:33:00,
2013-05-07 09:48:00,69.7,59.0,29.99,West,261,9.0,-999.0,68,-99.99,,,0.00,weatherlink.com 1.10,2013-05-07 13:48:00,
2013-05-07 10:03:00,70.8,60.0,29.99,WNW,302,9.0,-999.0,68,-99.99,,,0.00,weatherlink.com 1.10,2013-05-07 14:03:00,
2013-05-07 10:18:00,72.5,60.0,29.99,WNW,284,6.0,-999.0,65,-99.99,,,0.00,weatherlink.com 1.10,2013-05-07 14:18:00,
2013-05-07 10:33:00,72.6,59.0,29.99,West,272,7.0,-999.0,62,-99.99,,,0.00,weatherlink.com 1.10,2013-05-07 14:33:00,
2013-05-07 10:48:00,74.1,58.0,29.99,West,273,5.0,-999.0,57,-99.99,,,0.00,weatherlink.com 1.10,2013-05-07 14:48:00,
2013-05-07 11:03:00,73.2,58.0,29.99,WNW,299,6.0,-999.0,60,-99.99,,,0.00,weatherlink.com 1.10,2013-05-07 15:03:00,
2013-05-07 11:18:00,74.3,60.0,29.99,WNW,287,5.0,-999.0,61,-99.99,,,0.00,weatherlink.com 1.10,2013-05-07 15:18:00,
2013-05-07 11:33:00,74.1,58.0,29.99,West,278,16.0,-999.0,57,-99.99,,,0.00,weatherlink.com 1.10,2013-05-07 15:33:00,
2013-05-07 11:48:00,75.8,59.0,29.99,WNW,294,8.0,-999.0,57,-99.99,,,0.00,weatherlink.com 1.10,2013-05-07 15:48:00,
2013-05-07 12:03:00,76.2,59.0,29.98,West,266,1.0,-999.0,56,-99.99,,,0.00,weatherlink.com 1.10,2013-05-07 16:03:00,
2013-05-07 12:18:00,76.0,58.0,29.97,West,275,10.0,-999.0,54,-99.99,,,0.00,weatherlink.com 1.10,2013-05-07 16:18:00,
2013-05-07 12:33:00,77.4,60.0,29.97,WSW,238,10.0,-999.0,55,-99.99,,,0.00,weatherlink.com 1.10,2013-05-07 16:33:00,
2013-05-07 12:48:00,77.8,60.0,29.97,WSW,255,2.0,-999.0,54,-99.99,,,0.00,weatherlink.com 1.10,2013-05-07 16:48:00,
2013-05-07 13:03:00,78.7,61.0,29.96,West,269,6.0,-999.0,54,-99.99,,,0.00,weatherlink.com 1.10,2013-05-07 17:03:00,
2013-05-07 13:18:00,79.1,60.0,29.96,WNW,296,3.0,-999.0,52,-99.99,,,0.00,weatherlink.com 1.10,2013-05-07 17:18:00,
2013-05-07 13:33:00,79.3,60.0,29.96,WSW,257,1.0,-999.0,52,-99.99,,,0.00,weatherlink.com 1.10,2013-05-07 17:33:00,
2013-05-07 13:48:00,79.7,61.0,29.96,West,274,12.0,-999.0,53,-99.99,,,0.00,weatherlink.com 1.10,2013-05-07 17:48:00,
2013-05-07 14:03:00,80.0,61.0,29.95,West,263,3.0,-999.0,53,-99.99,,,0.00,weatherlink.com 1.10,2013-05-07 18:03:00,
2013-05-07 14:18:00,80.0,61.0,29.95,West,271,6.0,-999.0,52,-99.99,,,0.00,weatherlink.com 1.10,2013-05-07 18:18:00,
2013-05-07 14:33:00,80.1,60.0,29.94,WNW,291,12.0,-999.0,50,-99.99,,,0.00,weatherlink.com 1.10,2013-05-07 18:33:00,
2013-05-07 14:48:00,80.8,60.0,29.94,West,266,2.0,-999.0,49,-99.99,,,0.00,weatherlink.com 1.10,2013-05-07 18:48:00,
2013-05-07 15:03:00,80.4,59.0,29.93,WNW,288,12.0,-999.0,49,-99.99,,,0.00,weatherlink.com 1.10,2013-05-07 19:03:00,
2013-05-07 15:19:00,81.0,61.0,29.93,West,277,1.0,-999.0,51,-99.99,,,0.00,weatherlink.com 1.10,2013-05-07 19:19:00,
2013-05-07 15:34:00,81.3,61.0,29.92,WNW,287,1.0,-999.0,50,-99.99,,,0.00,weatherlink.com 1.10,2013-05-07 19:34:00,
2013-05-07 15:49:00,80.5,59.0,29.91,WNW,286,0.0,-999.0,48,-99.99,,,0.00,weatherlink.com 1.10,2013-05-07 19:49:00,
2013-05-07 16:04:00,80.3,59.0,29.91,WSW,256,4.0,-999.0,49,-99.99,,,0.00,weatherlink.com 1.10,2013-05-07 20:04:00,
2013-05-07 16:19:00,81.2,60.0,29.91,West,274,3.0,-999.0,49,-99.99,,,0.00,weatherlink.com 1.10,2013-05-07 20:19:00,
2013-05-07 16:34:00,81.2,60.0,29.91,WSW,254,10.0,-999.0,48,-99.99,,,0.00,weatherlink.com 1.10,2013-05-07 20:34:00,
2013-05-07 16:49:00,80.3,58.0,29.91,West,279,12.0,-999.0,47,-99.99,,,0.00,weatherlink.com 1.10,2013-05-07 20:49:00,
2013-05-07 17:04:00,81.1,60.0,29.91,West,277,13.0,-999.0,48,-99.99,,,0.00,weatherlink.com 1.10,2013-05-07 21:04:00,
2013-05-07 17:19:00,79.9,58.0,29.91,SW,235,15.0,-999.0,48,-99.99,,,0.00,weatherlink.com 1.10,2013-05-07 21:19:00,
2013-05-07 17:34:00,80.8,59.0,29.91,WSW,248,5.0,-999.0,48,-99.99,,,0.00,weatherlink.com 1.10,2013-05-07 21:34:00,
2013-05-07 17:49:00,81.0,59.0,29.91,West,270,10.0,-999.0,48,-99.99,,,0.00,weatherlink.com 1.10,2013-05-07 21:49:00,
2013-05-07 18:04:00,79.8,58.0,29.91,West,263,2.0,-999.0,48,-99.99,,,0.00,weatherlink.com 1.10,2013-05-07 22:04:00,
2013-05-07 18:19:00,79.5,59.0,29.91,West,265,3.0,-999.0,49,-99.99,,,0.00,weatherlink.com 1.10,2013-05-07 22:19:00,
2013-05-07 18:34:00,79.0,59.0,29.91,WSW,252,11.0,-999.0,50,-99.99,,,0.00,weatherlink.com 1.10,2013-05-07 22:34:00,
2013-05-07 18:49:00,79.3,58.0,29.91,West,275,3.0,-999.0,49,-99.99,,,0.00,weatherlink.com 1.10,2013-05-07 22:49:00,
2013-05-07 19:04:00,78.3,58.0,29.91,WNW,296,4.0,-999.0,50,-99.99,,,0.00,weatherlink.com 1.10,2013-05-07 23:04:00,
2013-05-07 19:19:00,77.2,59.0,29.91,West,267,3.0,-999.0,53,-99.99,,,0.00,weatherlink.com 1.10,2013-05-07 23:19:00,
2013-05-07 19:34:00,76.4,59.0,29.91,WSW,257,6.0,-999.0,55,-99.99,,,0.00,weatherlink.com 1.10,2013-05-07 23:34:00,
2013-05-07 19:49:00,75.3,58.0,29.92,West,267,0.0,-999.0,56,-99.99,,,0.00,weatherlink.com 1.10,2013-05-07 23:49:00,
2013-05-07 20:04:00,74.4,58.0,29.93,West,267,0.0,-999.0,57,-99.99,,,0.00,weatherlink.com 1.10,2013-05-08 00:04:00,
2013-05-07 20:19:00,73.4,59.0,29.93,West,267,0.0,-999.0,60,-99.99,,,0.00,weatherlink.com 1.10,2013-05-08 00:19:00,
2013-05-07 20:34:00,72.2,58.0,29.94,West,267,0.0,-999.0,62,-99.99,,,0.00,weatherlink.com 1.10,2013-05-08 00:34:00,
2013-05-07 20:49:00,71.2,59.0,29.94,West,267,0.0,-999.0,65,-99.99,,,0.00,weatherlink.com 1.10,2013-05-08 00:49:00,
2013-05-07 21:04:00,70.7,59.0,29.95,West,267,0.0,-999.0,67,-99.99,,,0.00,weatherlink.com 1.10,2013-05-08 01:04:00,
2013-05-07 21:19:00,70.3,59.0,29.96,West,267,0.0,-999.0,67,-99.99,,,0.00,weatherlink.com 1.10,2013-05-08 01:19:00,
2013-05-07 21:34:00,69.7,59.0,29.96,West,267,0.0,-999.0,69,-99.99,,,0.00,weatherlink.com 1.10,2013-05-08 01:34:00,
2013-05-07 21:49:00,69.1,59.0,29.97,West,267,0.0,-999.0,70,-99.99,,,0.00,weatherlink.com 1.10,2013-05-08 01:49:00,
2013-05-07 22:04:00,68.3,59.0,29.97,West,267,0.0,-999.0,72,-99.99,,,0.00,weatherlink.com 1.10,2013-05-08 02:04:00,
2013-05-07 22:19:00,67.6,59.0,29.98,West,267,0.0,-999.0,74,-99.99,,,0.00,weatherlink.com 1.10,2013-05-08 02:19:00,
2013-05-07 22:34:00,66.8,59.0,29.98,West,267,0.0,-999.0,76,-99.99,,,0.00,weatherlink.com 1.10,2013-05-08 02:34:00,
2013-05-07 22:49:00,66.1,59.0,29.99,West,267,0.0,-999.0,78,-99.99,,,0.00,weatherlink.com 1.10,2013-05-08 02:49:00,
2013-05-07 23:04:00,65.7,59.0,29.99,West,267,0.0,-999.0,79,-99.99,,,0.00,weatherlink.com 1.10,2013-05-08 03:04:00,
2013-05-07 23:19:00,65.6,59.0,29.99,West,267,0.0,-999.0,79,-99.99,,,0.00,weatherlink.com 1.10,2013-05-08 03:19:00,
2013-05-07 23:34:00,65.1,59.0,30.00,West,267,0.0,-999.0,81,-99.99,,,0.00,weatherlink.com 1.10,2013-05-08 03:34:00,
2013-05-07 23:49:00,64.7,59.0,30.00,West,267,0.0,-999.0,81,-99.99,,,0.00,weatherlink.com 1.10,2013-05-08 03:49:00,